Location: Unspecified
(0.0000°N, 0.0000°E)
Time: 04:29:03
(UTC+00:00)

deb Delta 104 - Pass Details

Date: 06 March 2026
Orbit: 1403 x 1485 km, 102.0° (Epoch: 15 April)

Event Time Altitude Azimuth Distance (km) Brightness Sun altitude
Rises 18:24:42 0° 165° (SSE) 4,482 ? -3.4°
Reaches altitude 10° 18:27:25 10° 165° (SSE) 3,511 ? -4.0°
Maximum altitude 18:35:37 87° 254° (WSW) 1,436 ? -6.1°
Drops below altitude 10° 18:43:55 10° 343° (NNW) 3,559 ? -8.1°
Sets 18:46:42 0° 343° (NNW) 4,546 ? -8.8°
